period_start,C,m1,H,J0,J1,J2,J3,J4,J5,JA,JB,JC,JD,JJ,JK,JN,#
2014-09-01 00:00:55,0.00,0.03,0.00,20.73,27.30,30.49,9.81,39.78,1013.41,2038.99,3498.58,3320.07,3607.68,500.23,499.15,7.99,0000 0000 0000 0000 000000
2014-09-01 00:05:55,0.01,0.03,0.00,20.76,27.30,30.60,9.65,39.63,1013.47,2038.99,3498.37,3320.02,3607.45,499.68,498.66,8.04,0000 0000 0000 0000 000000
2014-09-01 00:10:57,0.00,0.03,0.00,20.86,27.30,30.53,9.70,39.73,1013.37,2038.99,3498.35,3320.02,3607.28,499.92,498.79,8.08,0000 0000 0000 0000 000000
2014-09-01 00:15:58,0.00,0.03,0.00,20.78,27.30,30.44,9.85,39.92,1013.25,2038.99,3498.09,3320.02,3607.20,500.52,499.33,8.12,0000 0000 0000 0000 000000
2014-09-01 00:20:59,0.00,0.03,0.00,20.77,27.31,30.37,9.66,39.80,1013.24,2038.99,3498.04,3320.02,3607.10,499.87,498.66,8.16,0000 0000 0000 0000 000000
2014-09-01 00:26:00,0.00,0.03,0.00,20.75,27.32,30.35,9.72,39.68,1013.33,2038.99,3498.03,3320.00,3607.11,500.00,498.95,8.20,0000 0000 0000 0000 000000
2014-09-01 00:31:01,0.00,0.03,0.00,20.86,27.32,30.30,9.71,39.83,1013.28,2038.99,3498.02,3320.00,3607.03,499.94,498.48,8.24,0000 0000 0000 0000 000000
2014-09-01 00:36:02,0.00,0.03,0.00,20.84,27.32,30.33,9.79,39.79,1013.24,2038.99,3498.03,3320.00,3607.03,500.45,499.07,8.29,0000 0000 0000 0000 000000
2014-09-01 00:41:03,0.00,0.03,0.00,20.78,27.32,30.39,9.65,39.82,1013.24,2038.99,3498.01,3320.00,3607.03,499.75,498.32,8.33,0000 0000 0000 0000 000000
2014-09-01 00:46:04,0.00,0.03,0.00,20.87,27.34,30.40,9.65,39.71,1013.28,2038.99,3498.01,3320.00,3607.02,499.79,498.45,8.37,0000 0000 0000 0000 000000
2014-09-01 00:51:06,-0.00,0.03,0.00,20.92,27.35,30.43,9.72,39.67,1013.29,2038.98,3498.00,3320.00,3607.00,499.89,498.51,8.41,0000 0000 0000 0000 000000
2014-09-01 00:56:07,-0.00,0.03,0.00,21.09,27.35,30.34,9.77,39.72,1013.24,2038.98,3498.00,3320.00,3607.00,500.01,498.44,8.45,0000 0000 0000 0000 000000
2014-09-01 01:01:08,-0.00,0.03,0.00,20.94,27.35,30.31,9.65,39.65,1013.22,2038.98,3498.00,3320.00,3607.00,499.91,498.34,8.50,0000 0000 0000 0000 000000
2014-09-01 01:06:08,0.00,0.03,0.00,20.90,27.37,30.36,9.66,39.59,1013.21,2038.99,3497.99,3319.98,3606.99,500.03,498.59,8.54,0000 0000 0000 0000 000000
2014-09-01 01:11:09,0.00,0.03,0.00,20.97,27.37,30.47,9.81,39.75,1013.29,2038.99,3497.99,3319.97,3606.96,500.42,498.92,8.58,0000 0000 0000 0000 000000
2014-09-01 01:16:11,0.00,0.03,0.00,20.96,27.38,30.49,9.63,39.65,1013.27,2038.98,3497.96,3319.98,3606.94,499.43,498.14,8.62,0000 0000 0000 0000 000000
2014-09-01 01:21:12,0.00,0.03,0.00,20.98,27.39,30.40,9.70,39.75,1013.31,2038.98,3497.88,3319.97,3606.91,499.83,498.37,8.66,0000 0000 0000 0000 000000
2014-09-01 01:26:13,0.02,0.03,0.00,21.02,27.40,30.38,9.72,39.93,1013.29,2038.97,3497.63,3319.81,3606.59,500.37,498.88,8.70,0000 0000 0000 0000 000000
2014-09-01 01:31:14,0.02,0.03,0.00,21.02,27.40,30.40,9.69,39.62,1013.35,2038.93,3497.23,3319.39,3606.12,500.13,498.64,8.75,0000 0000 0000 0000 000000
2014-09-01 01:36:15,0.00,0.03,0.00,21.08,27.42,30.41,9.55,39.70,1013.29,2038.94,3497.12,3319.40,3606.12,499.45,497.61,8.79,0000 0000 0000 0000 000000
2014-09-01 01:41:16,-0.04,0.03,0.00,21.17,27.42,30.39,9.74,39.66,1013.25,2038.65,3497.03,3319.04,3606.01,500.20,498.30,8.83,0000 0000 0000 0000 000000
2014-09-01 01:46:17,0.03,0.03,0.00,21.10,27.44,30.38,9.75,39.72,1013.29,2038.56,3497.01,3319.01,3606.00,500.37,498.56,8.87,0000 0000 0000 0000 000000
2014-09-01 01:51:18,-0.03,0.03,0.00,21.11,27.45,30.42,9.77,39.69,1013.23,2038.49,3496.98,3319.00,3605.98,500.26,498.56,8.91,0000 0000 0000 0000 000000
2014-09-01 01:56:18,-0.02,0.03,0.00,21.07,27.46,30.45,9.76,39.50,1013.22,2038.27,3496.92,3318.99,3605.93,500.14,498.41,8.96,0000 0000 0000 0000 000000
2014-09-01 02:01:19,0.01,0.03,0.00,21.13,27.47,30.49,9.72,39.60,1013.24,2038.16,3496.70,3318.95,3605.54,500.09,498.27,9.00,0000 0000 0000 0000 000000
2014-09-01 02:06:20,0.00,0.03,0.00,21.17,27.49,30.48,9.68,39.50,1013.22,2038.04,3496.50,3318.80,3605.09,500.00,498.02,9.04,0000 0000 0000 0000 000000
2014-09-01 02:11:21,0.02,0.03,0.00,21.18,27.50,30.49,9.67,39.38,1013.21,2038.02,3496.24,3318.46,3605.02,499.75,497.91,9.08,0000 0000 0000 0000 000000
2014-09-01 02:16:22,0.01,0.03,0.00,21.13,27.52,30.46,9.69,39.55,1013.21,2038.01,3496.04,3318.12,3605.00,499.79,498.12,9.12,0000 0000 0000 0000 000000
2014-09-01 02:21:23,0.00,0.03,0.00,21.23,27.53,30.48,9.69,39.44,1013.20,2038.00,3496.01,3318.02,3605.00,499.77,497.86,9.16,0000 0000 0000 0000 000000
2014-09-01 02:26:24,0.00,0.03,0.00,21.34,27.55,30.47,9.62,39.29,1013.20,2038.00,3496.00,3318.00,3604.98,499.88,497.70,9.21,0000 0000 0000 0000 000000
2014-09-01 02:31:25,0.00,0.03,0.00,21.42,27.57,30.49,9.76,39.38,1013.20,2038.00,3496.01,3318.00,3604.96,500.27,497.84,9.25,0000 0000 0000 0000 000000
2014-09-01 02:36:25,0.00,0.03,0.00,21.45,27.59,30.50,9.77,39.38,1013.21,2038.00,3496.00,3317.99,3604.74,500.39,498.04,9.29,0000 0000 0000 0000 000000
2014-09-01 02:41:26,0.00,0.03,0.00,21.47,27.61,30.53,9.72,39.48,1013.21,2037.99,3495.97,3317.98,3604.17,499.86,497.50,9.33,0000 0000 0000 0000 000000
2014-09-01 02:46:27,0.02,0.03,0.00,21.46,27.62,30.55,9.66,39.16,1013.21,2037.99,3495.55,3317.67,3604.01,500.04,497.57,9.37,0000 0000 0000 0000 000000
2014-09-01 02:51:28,0.01,0.03,0.00,21.46,27.65,30.57,9.69,39.27,1013.22,2037.94,3495.14,3317.27,3604.00,499.83,497.51,9.41,0000 0000 0000 0000 000000
2014-09-01 02:56:30,0.00,0.03,0.00,21.49,27.67,30.59,9.62,39.32,1013.22,2037.90,3495.01,3317.06,3603.98,499.89,497.54,9.46,0000 0000 0000 0000 000000
2014-09-01 03:01:31,-0.02,0.03,0.00,21.45,27.70,30.64,9.65,39.23,1013.22,2037.71,3495.00,3317.00,3603.83,499.72,497.44,9.50,0000 0000 0000 0000 000000
2014-09-01 03:06:32,-0.03,0.03,0.00,21.44,27.71,30.67,9.62,39.37,1013.22,2037.33,3494.99,3317.00,3603.27,499.73,497.47,9.54,0000 0000 0000 0000 000000
2014-09-01 03:11:33,-0.01,0.03,0.00,21.35,27.74,30.71,9.78,39.30,1013.20,2037.05,3494.91,3316.91,3603.00,500.06,498.09,9.58,0000 0000 0000 0000 000000
2014-09-01 03:16:35,0.03,0.03,0.00,21.55,27.76,30.71,9.68,39.29,1013.21,2037.01,3494.34,3316.28,3602.98,500.18,497.72,9.62,0000 0000 0000 0000 000000
2014-09-01 03:21:36,0.00,0.03,0.00,21.81,27.79,30.66,9.74,39.33,1013.21,2037.00,3494.21,3316.05,3602.93,500.46,497.40,9.67,0000 0000 0000 0000 000000
2014-09-01 03:26:37,0.01,0.03,0.00,22.25,27.82,30.61,9.72,39.24,1013.20,2037.00,3494.35,3316.03,3602.72,500.12,496.49,9.71,0000 0000 0000 0000 000000
2014-09-01 03:31:38,0.01,0.03,0.00,22.42,27.85,30.61,9.62,39.24,1013.21,2036.99,3494.01,3316.00,3602.10,500.16,496.31,9.75,0000 0000 0000 0000 000000
2014-09-01 03:36:39,0.00,0.03,0.00,22.55,27.87,30.62,9.64,38.95,1013.20,2036.99,3493.93,3315.93,3602.00,500.36,496.04,9.79,0000 0000 0000 0000 000000
2014-09-01 03:41:41,0.01,0.03,0.00,22.63,27.90,30.63,9.61,39.13,1013.20,2036.97,3493.91,3315.53,3601.97,499.92,495.43,9.83,0000 0000 0000 0000 000000
2014-09-01 03:46:42,0.01,0.03,0.00,22.66,27.91,30.63,9.65,39.31,1013.20,2036.97,3493.72,3315.19,3601.87,500.33,495.94,9.87,0000 0000 0000 0000 000000
2014-09-01 03:51:43,0.02,0.03,0.00,22.68,27.92,30.62,9.52,39.27,1013.20,2036.92,3493.06,3315.01,3601.33,499.87,495.45,9.92,0000 0000 0000 0000 000000
2014-09-01 03:56:44,-0.01,0.03,0.00,22.71,27.95,30.62,9.61,39.12,1013.20,2036.89,3493.00,3315.00,3601.02,500.21,495.68,9.96,0000 0000 0000 0000 000000
2014-09-01 04:01:45,-0.04,0.03,0.00,22.71,27.95,30.61,9.67,39.14,1013.20,2036.50,3492.74,3314.93,3600.99,500.29,495.72,10.00,0000 0000 0000 0000 000000
2014-09-01 04:06:46,0.00,0.03,0.00,22.71,27.95,30.60,9.60,39.15,1013.20,2036.27,3492.22,3314.63,3600.96,499.98,495.64,10.04,0000 0000 0000 0000 000000
2014-09-01 04:11:47,0.01,0.03,0.00,22.73,27.95,30.59,9.57,39.23,1013.20,2036.20,3492.03,3314.21,3600.86,499.76,495.39,10.08,0000 0000 0000 0000 000000
2014-09-01 04:16:49,0.02,0.03,0.00,22.77,27.95,30.59,9.61,39.13,1013.20,2036.25,3492.00,3314.10,3600.60,499.79,495.41,10.13,0000 0000 0000 0000 000000
2014-09-01 04:21:50,-0.01,0.03,0.00,22.78,27.95,30.57,9.67,39.20,1013.20,2036.16,3492.00,3314.02,3600.22,500.56,495.94,10.17,0000 0000 0000 0000 000000
2014-09-01 04:26:51,0.00,0.03,0.00,22.80,27.95,30.57,9.63,39.24,1013.20,2036.21,3491.99,3314.02,3600.12,500.10,495.65,10.21,0000 0000 0000 0000 000000
2014-09-01 04:31:52,0.01,0.03,0.00,22.85,27.95,30.56,9.58,39.15,1013.20,2036.24,3491.90,3314.00,3600.02,499.96,495.34,10.25,0000 0000 0000 0000 000000
2014-09-01 04:36:53,-0.00,0.03,0.00,22.83,27.94,30.56,9.57,39.18,1013.20,2036.13,3491.25,3313.99,3600.00,500.16,495.48,10.29,0000 0000 0000 0000 000000
2014-09-01 04:41:55,0.03,0.03,0.00,22.83,27.92,30.53,9.50,39.11,1013.20,2036.33,3491.07,3313.99,3600.00,499.88,495.19,10.34,0000 0000 0000 0000 000000
2014-09-01 04:46:56,-0.00,0.03,0.00,22.78,27.92,30.51,9.60,39.08,1013.20,2036.29,3491.04,3313.99,3600.00,500.26,495.67,10.38,0000 0000 0000 0000 000000
2014-09-01 04:51:57,0.04,0.03,0.00,22.85,27.90,30.50,9.65,39.13,1013.19,2036.59,3491.00,3313.99,3600.00,500.01,495.35,10.42,0000 0000 0000 0000 000000
2014-09-01 04:56:58,0.02,0.04,0.00,22.89,27.90,30.48,9.59,39.08,1013.19,2036.86,3491.00,3313.99,3599.99,500.35,495.56,10.46,0000 0000 0000 0000 000000
2014-09-01 05:01:59,0.00,0.04,0.00,22.89,27.88,30.48,9.59,39.06,1013.18,2036.91,3491.00,3313.98,3599.98,499.80,495.17,10.50,0000 0000 0000 0000 000000
2014-09-01 05:07:00,0.01,0.04,0.00,22.93,27.87,30.47,9.59,39.19,1013.11,2036.95,3490.98,3313.97,3599.98,499.75,494.86,10.54,0000 0000 0000 0000 000000
2014-09-01 05:12:02,-0.00,0.04,0.00,22.98,27.85,30.46,9.54,38.96,1012.92,2036.95,3490.99,3313.99,3599.97,500.03,494.90,10.59,0000 0000 0000 0000 000000
2014-09-01 05:17:03,0.00,0.04,0.00,22.99,27.83,30.44,9.54,39.04,1012.81,2036.98,3490.99,3313.99,3599.98,499.59,494.51,10.63,0000 0000 0000 0000 000000
2014-09-01 05:22:04,0.00,0.04,0.00,22.96,27.81,30.44,9.61,39.05,1012.76,2036.98,3490.99,3313.99,3599.99,500.10,494.98,10.67,0000 0000 0000 0000 000000
2014-09-01 05:27:05,0.07,0.04,0.00,22.96,27.80,30.42,9.61,39.13,1012.75,2036.99,3490.15,3313.51,3599.46,500.30,495.18,10.71,0000 0000 0000 0000 000000
2014-09-01 05:32:06,0.07,0.04,0.00,22.94,27.77,30.40,9.58,39.08,1012.72,2036.99,3488.06,3312.11,3598.05,500.14,494.92,10.75,0000 0000 0000 0000 000000
2014-09-01 05:37:07,-0.00,0.04,0.00,22.98,27.75,30.39,9.57,38.99,1012.72,2036.99,3488.01,3312.23,3598.07,500.27,495.05,10.80,0000 0000 0000 0000 000000
2014-09-01 05:42:08,-0.01,0.04,0.00,22.99,27.73,30.35,9.59,39.03,1012.71,2036.99,3488.06,3312.65,3598.17,500.11,494.83,10.84,0000 0000 0000 0000 000000
2014-09-01 05:47:10,-0.01,0.04,0.00,23.00,27.71,30.33,9.58,39.16,1012.71,2036.99,3488.12,3312.88,3598.53,499.85,494.64,10.88,0000 0000 0000 0000 000000
2014-09-01 05:52:11,0.00,0.04,0.00,23.00,27.69,30.29,9.58,38.79,1012.68,2037.04,3488.35,3312.96,3598.87,500.30,495.12,10.92,0000 0000 0000 0000 000000
2014-09-01 05:57:12,-0.00,0.04,0.00,23.02,27.67,30.29,9.57,39.02,1012.55,2037.02,3488.17,3312.99,3598.89,500.37,495.12,10.96,0000 0000 0000 0000 000000
2014-09-01 06:02:13,0.01,0.04,0.00,23.01,27.65,30.26,9.55,39.00,1012.45,2037.09,3488.30,3312.99,3598.95,499.81,494.60,11.00,0000 0000 0000 0000 000000
2014-09-01 06:07:14,0.03,0.04,0.00,23.03,27.63,30.22,9.53,39.10,1012.54,2037.41,3488.78,3312.99,3598.98,499.63,494.29,11.05,0000 0000 0000 0000 000000
2014-09-01 06:12:15,0.04,0.04,0.00,23.04,27.61,30.21,9.54,38.98,1012.51,2037.74,3488.52,3312.98,3598.87,500.15,494.75,11.09,0000 0000 0000 0000 000000
2014-09-01 06:17:17,0.03,0.04,0.00,23.00,27.60,30.20,9.55,38.94,1012.43,2037.92,3488.01,3312.94,3598.56,500.15,494.81,11.13,0000 0000 0000 0000 000000
2014-09-01 06:22:18,-0.01,0.04,0.00,22.98,27.57,30.16,9.56,38.97,1012.30,2037.95,3488.02,3312.99,3598.87,499.82,494.46,11.17,0000 0000 0000 0000 000000
2014-09-01 06:27:19,0.00,0.04,0.00,22.91,27.56,30.13,9.55,38.87,1012.27,2037.98,3488.00,3312.98,3598.95,500.00,494.71,11.21,0000 0000 0000 0000 000000
2014-09-01 06:32:20,-0.00,0.04,0.00,22.87,27.55,30.08,9.56,38.98,1012.25,2037.98,3488.00,3312.98,3598.94,500.46,495.21,11.26,0000 0000 0000 0000 000000
2014-09-01 06:37:21,0.00,0.04,0.00,22.31,27.52,30.07,9.53,38.96,1012.24,2037.99,3488.00,3312.99,3598.98,500.13,495.89,11.30,0000 0000 0000 0000 000000
2014-09-01 06:42:22,0.00,0.04,0.00,21.49,27.51,30.10,9.62,39.03,1012.23,2037.99,3488.00,3312.99,3598.96,499.82,496.99,11.34,0000 0000 0000 0000 000000
2014-09-01 06:47:23,0.00,0.04,0.00,20.89,27.50,30.27,9.63,39.13,1012.22,2037.99,3487.99,3312.99,3598.98,499.60,497.60,11.38,0000 0000 0000 0000 000000
2014-09-01 06:52:24,0.00,0.04,0.00,20.75,27.49,30.44,9.68,39.38,1012.22,2038.00,3487.98,3312.99,3598.99,500.02,498.27,11.42,0000 0000 0000 0000 000000
2014-09-01 06:57:25,0.00,0.04,0.00,20.83,27.47,30.40,9.71,39.42,1012.22,2038.00,3487.98,3312.99,3598.99,499.78,497.92,11.46,0000 0000 0000 0000 000000
2014-09-01 07:02:26,0.00,0.04,0.00,21.32,27.47,30.38,9.68,39.16,1012.22,2038.00,3487.99,3313.00,3598.99,500.26,497.62,11.51,0000 0000 0000 0000 000000
2014-09-01 07:07:26,0.00,0.04,0.00,22.11,27.48,30.38,9.53,38.95,1012.21,2038.00,3487.97,3313.00,3598.99,499.64,495.75,11.55,0000 0000 0000 0000 000000
2014-09-01 07:12:27,0.00,0.04,0.00,22.47,27.49,30.16,9.46,38.87,1012.22,2038.00,3487.94,3313.00,3598.99,500.10,495.62,11.59,0000 0000 0000 0000 000000
2014-09-01 07:17:28,0.00,0.04,0.00,22.66,27.50,30.11,9.79,38.93,1012.21,2038.01,3487.95,3313.00,3598.97,500.17,495.12,11.63,0000 0000 0000 0000 000000
2014-09-01 07:22:28,-0.00,0.04,0.00,22.81,27.50,30.10,9.47,38.64,1012.17,2038.01,3487.87,3313.00,3598.95,499.87,494.86,11.67,0000 0000 0000 0000 000000
2014-09-01 07:27:29,0.01,0.04,0.00,22.87,27.50,30.12,9.54,38.79,1012.15,2038.01,3487.76,3313.00,3598.87,500.17,494.98,11.71,0000 0000 0000 0000 000000
2014-09-01 07:32:31,-0.00,0.05,0.00,22.93,27.50,30.12,9.53,38.80,1012.07,2038.02,3487.70,3312.99,3598.93,499.77,494.54,11.76,0000 0000 0000 0000 000000
2014-09-01 07:37:32,0.01,0.05,0.00,23.01,27.50,30.11,9.56,38.92,1011.90,2038.02,3487.42,3312.99,3598.90,500.23,494.58,11.80,0000 0000 0000 0000 000000
2014-09-01 07:42:33,-0.00,0.05,0.00,23.07,27.48,30.11,9.58,38.83,1011.79,2038.02,3487.30,3312.99,3598.88,499.99,494.21,11.84,0000 0000 0000 0000 000000
2014-09-01 07:47:34,0.00,0.05,0.00,23.12,27.47,30.10,9.54,38.87,1011.77,2038.08,3487.34,3312.99,3598.94,499.94,494.01,11.88,0000 0000 0000 0000 000000
2014-09-01 07:52:35,0.00,0.05,0.00,23.15,27.47,30.07,9.60,38.83,1011.75,2038.06,3487.08,3312.98,3598.79,500.41,494.48,11.92,0000 0000 0000 0000 000000
2014-09-01 07:57:36,0.01,0.05,0.00,23.19,27.46,30.03,9.54,38.89,1011.74,2038.16,3487.10,3312.99,3598.87,499.97,494.01,11.97,0000 0000 0000 0000 000000
2014-09-01 08:02:36,-0.00,0.05,0.00,23.19,27.45,29.97,9.57,38.82,1011.75,2038.13,3487.06,3312.99,3598.90,499.99,493.99,12.01,0000 0000 0000 0000 000000
2014-09-01 08:07:37,0.01,0.05,0.00,23.16,27.42,29.99,9.51,38.82,1011.74,2038.30,3487.04,3312.99,3598.94,500.11,494.04,12.05,0000 0000 0000 0000 000000
2014-09-01 08:12:38,0.01,0.05,0.00,23.09,27.40,30.02,9.54,38.96,1011.73,2038.42,3487.06,3312.99,3598.96,499.85,494.15,12.09,0000 0000 0000 0000 000000
2014-09-01 08:17:40,0.04,0.05,0.00,23.08,27.38,30.05,9.61,38.81,1011.74,2038.76,3487.08,3312.99,3598.98,500.12,494.51,12.13,0000 0000 0000 0000 000000
2014-09-01 08:22:41,0.00,0.05,0.00,23.08,27.36,29.95,9.56,38.89,1011.73,2038.88,3487.08,3313.01,3598.99,500.37,494.54,12.17,0000 0000 0000 0000 000000
2014-09-01 08:27:42,0.00,0.05,0.00,23.12,27.35,29.84,9.45,38.83,1011.73,2038.94,3487.29,3313.03,3598.99,499.85,493.97,12.22,0000 0000 0000 0000 000000
2014-09-01 08:32:43,-0.00,0.05,0.00,23.13,27.32,29.79,9.63,38.92,1011.73,2038.98,3487.43,3313.23,3598.99,500.36,494.45,12.26,0000 0000 0000 0000 000000
2014-09-01 08:37:44,-0.01,0.05,0.00,23.04,27.30,29.81,9.49,38.88,1011.73,2038.99,3487.51,3313.67,3599.03,499.81,494.00,12.30,0000 0000 0000 0000 000000
2014-09-01 08:42:45,-0.00,0.05,0.00,23.04,27.28,29.88,9.57,38.88,1011.73,2038.99,3487.58,3313.84,3599.02,499.98,494.22,12.34,0000 0000 0000 0000 000000
2014-09-01 08:47:46,-0.02,0.05,0.00,23.06,27.26,29.87,9.48,38.89,1011.73,2038.99,3487.89,3313.98,3599.33,499.89,494.00,12.38,0000 0000 0000 0000 000000
2014-09-01 08:52:47,0.01,0.05,0.00,23.06,27.24,29.86,9.51,38.92,1011.71,2039.01,3487.95,3313.99,3599.62,499.91,494.36,12.43,0000 0000 0000 0000 000000
2014-09-01 08:57:48,-0.00,0.05,0.00,23.00,27.22,29.84,9.53,38.90,1011.71,2039.02,3487.93,3313.99,3599.66,499.80,494.06,12.47,0000 0000 0000 0000 000000
2014-09-01 09:02:49,0.01,0.05,0.00,22.95,27.20,29.81,9.58,38.94,1011.70,2039.19,3487.97,3313.99,3599.94,500.09,494.40,12.51,0000 0000 0000 0000 000000
2014-09-01 09:07:51,0.01,0.05,0.00,22.97,27.17,29.80,9.50,38.88,1011.70,2039.30,3487.97,3313.99,3599.97,500.11,494.63,12.55,0000 0000 0000 0000 000000
2014-09-01 09:12:52,0.04,0.05,0.00,23.03,27.15,29.76,9.55,38.92,1011.65,2039.66,3487.96,3314.02,3599.98,499.96,494.15,12.59,0000 0000 0000 0000 000000
2014-09-01 09:17:53,0.01,0.05,0.00,22.94,27.12,29.70,9.51,38.92,1011.60,2039.88,3487.96,3314.05,3599.99,499.93,494.26,12.63,0000 0000 0000 0000 000000
2014-09-01 09:22:54,0.00,0.05,0.00,22.99,27.10,29.68,9.52,38.77,1011.58,2039.97,3487.97,3314.16,3599.99,499.90,494.21,12.68,0000 0000 0000 0000 000000
2014-09-01 09:27:55,-0.01,0.05,0.00,22.97,27.07,29.65,9.58,38.92,1011.69,2039.98,3487.99,3314.56,3600.02,500.14,494.29,12.72,0000 0000 0000 0000 000000
2014-09-01 09:32:56,-0.00,0.05,0.00,22.98,27.05,29.60,9.47,38.82,1011.70,2039.99,3487.99,3314.95,3600.07,499.98,494.27,12.76,0000 0000 0000 0000 000000
2014-09-01 09:37:57,0.00,0.05,0.00,22.93,27.02,29.59,9.56,38.73,1011.64,2039.99,3487.99,3314.99,3600.13,500.08,494.41,12.80,0000 0000 0000 0000 000000
2014-09-01 09:42:57,-0.01,0.05,0.00,22.71,27.00,29.57,9.64,38.90,1011.63,2040.00,3487.99,3314.99,3600.57,500.12,494.78,12.84,0000 0000 0000 0000 000000
2014-09-01 09:47:59,-0.00,0.05,0.00,22.65,26.98,29.55,9.55,38.78,1011.52,2040.02,3488.01,3315.00,3600.94,500.25,495.17,12.89,0000 0000 0000 0000 000000
2014-09-01 09:53:00,0.00,0.05,0.00,22.72,26.95,29.56,9.53,38.74,1011.56,2040.04,3488.01,3315.01,3600.98,499.97,494.56,12.93,0000 0000 0000 0000 000000
2014-09-01 09:58:00,0.01,0.05,0.00,22.83,26.93,29.51,9.56,38.77,1011.41,2040.13,3488.01,3315.02,3600.98,500.19,494.62,12.97,0000 0000 0000 0000 000000
2014-09-01 10:03:01,0.05,0.05,0.00,22.89,26.91,29.48,9.52,38.77,1011.31,2040.64,3488.03,3315.16,3600.99,500.09,494.33,13.01,0000 0000 0000 0000 000000
2014-09-01 10:08:03,0.01,0.05,0.00,22.91,26.89,29.43,9.52,38.78,1011.35,2040.88,3488.01,3315.24,3600.99,499.65,493.92,13.05,0000 0000 0000 0000 000000
2014-09-01 10:13:04,-0.00,0.05,0.00,22.93,26.87,29.38,9.60,38.84,1011.44,2040.93,3488.00,3315.42,3600.99,499.96,494.06,13.09,0000 0000 0000 0000 000000
2014-09-01 10:18:05,-0.00,0.05,0.00,22.88,26.85,29.37,9.45,38.76,1011.33,2040.96,3488.01,3315.55,3600.99,500.01,494.26,13.14,0000 0000 0000 0000 000000
2014-09-01 10:23:06,-0.00,0.05,0.00,22.80,26.83,29.37,9.49,38.72,1011.27,2040.99,3488.04,3315.95,3601.00,500.19,494.55,13.18,0000 0000 0000 0000 000000
2014-09-01 10:28:08,-0.00,0.05,0.00,22.86,26.81,29.36,9.44,38.69,1011.28,2040.99,3488.06,3315.99,3601.04,499.48,493.96,13.22,0000 0000 0000 0000 000000
2014-09-01 10:33:09,-0.00,0.05,0.00,22.89,26.80,29.33,9.53,38.58,1011.27,2040.99,3488.22,3315.99,3601.11,500.10,494.39,13.26,0000 0000 0000 0000 000000
2014-09-01 10:38:10,-0.01,0.05,0.00,22.88,26.78,29.32,9.55,38.74,1011.27,2041.00,3488.57,3315.99,3601.51,500.36,494.49,13.30,0000 0000 0000 0000 000000
2014-09-01 10:43:11,0.01,0.05,0.00,22.88,26.77,29.29,9.55,38.80,1011.28,2041.01,3488.40,3315.99,3601.53,499.93,494.22,13.35,0000 0000 0000 0000 000000
2014-09-01 10:48:12,-0.01,0.05,0.00,22.90,26.75,29.29,9.46,38.63,1011.30,2041.01,3488.66,3316.00,3601.72,499.62,494.03,13.39,0000 0000 0000 0000 000000
2014-09-01 10:53:13,-0.00,0.05,0.00,22.83,26.74,29.28,9.58,38.59,1011.34,2041.01,3488.46,3316.00,3601.76,500.16,494.62,13.43,0000 0000 0000 0000 000000
2014-09-01 10:58:15,-0.01,0.05,0.00,22.80,26.72,29.28,9.52,38.64,1011.31,2041.06,3488.86,3316.04,3601.96,500.14,494.49,13.47,0000 0000 0000 0000 000000
2014-09-01 11:03:16,0.00,0.05,0.00,22.87,26.72,29.24,9.48,38.65,1011.26,2041.09,3488.97,3316.08,3601.97,499.80,494.08,13.51,0000 0000 0000 0000 000000
2014-09-01 11:08:17,-0.00,0.05,0.00,22.90,26.70,29.20,9.53,38.71,1011.25,2041.12,3488.95,3316.11,3601.98,499.59,493.96,13.56,0000 0000 0000 0000 000000
2014-09-01 11:13:18,0.00,0.05,0.00,22.81,26.70,29.19,9.60,38.67,1011.25,2041.21,3488.96,3316.21,3601.98,500.16,494.45,13.60,0000 0000 0000 0000 000000
2014-09-01 11:18:19,0.01,0.05,0.00,22.80,26.70,29.18,9.55,38.61,1011.25,2041.33,3488.97,3316.33,3601.98,500.13,494.55,13.64,0000 0000 0000 0000 000000
2014-09-01 11:23:20,0.02,0.05,0.00,22.78,26.68,29.20,9.42,38.68,1011.25,2041.53,3488.98,3316.55,3601.98,499.73,494.05,13.68,0000 0000 0000 0000 000000
2014-09-01 11:28:21,-0.01,0.05,0.00,22.87,26.67,29.18,9.55,38.60,1011.21,2041.60,3488.97,3316.72,3601.98,500.40,494.66,13.72,0000 0000 0000 0000 000000
2014-09-01 11:33:22,0.03,0.05,0.00,22.93,26.67,29.16,9.57,38.62,1011.01,2041.74,3488.93,3316.49,3601.97,500.17,494.05,13.76,0000 0000 0000 0000 000000
2014-09-01 11:38:23,-0.01,0.05,0.00,22.89,26.66,29.13,9.46,38.67,1010.81,2041.76,3488.97,3316.68,3601.99,499.89,493.97,13.81,0000 0000 0000 0000 000000
2014-09-01 11:43:24,0.01,0.05,0.00,22.86,26.65,29.15,9.47,38.65,1010.79,2041.71,3488.79,3316.35,3601.98,499.76,493.94,13.85,0000 0000 0000 0000 000000
2014-09-01 11:48:25,0.01,0.06,0.00,22.82,26.65,29.16,9.57,38.68,1010.77,2041.91,3488.80,3316.57,3601.97,500.25,494.37,13.89,0000 0000 0000 0000 000000
2014-09-01 11:53:26,0.00,0.06,0.00,22.81,26.65,29.18,9.49,38.67,1010.78,2041.94,3488.64,3316.62,3601.97,500.06,494.04,13.93,0000 0000 0000 0000 000000
2014-09-01 11:58:27,0.02,0.06,0.00,22.85,26.63,29.18,9.49,38.58,1010.76,2041.95,3488.31,3316.45,3601.95,499.79,493.99,13.97,0000 0000 0000 0000 000000
2014-09-01 12:03:28,-0.01,0.06,0.00,22.81,26.62,29.18,9.49,38.64,1010.76,2041.94,3488.21,3316.48,3601.96,500.13,494.27,14.01,0000 0000 0000 0000 000000
2014-09-01 12:08:29,0.00,0.06,0.00,22.78,26.62,29.15,9.47,38.66,1010.76,2041.96,3488.10,3316.47,3601.93,499.77,493.97,14.06,0000 0000 0000 0000 000000
2014-09-01 12:13:30,-0.00,0.06,0.00,22.80,26.62,29.17,9.47,38.60,1010.76,2041.98,3488.05,3316.47,3601.92,500.09,494.16,14.10,0000 0000 0000 0000 000000
2014-09-01 12:18:32,-0.00,0.06,0.00,22.84,26.61,29.17,9.53,38.66,1010.75,2041.99,3488.05,3316.64,3601.97,500.37,494.39,14.14,0000 0000 0000 0000 000000
2014-09-01 12:23:33,-0.00,0.06,0.00,22.88,26.60,29.15,9.56,38.67,1010.75,2041.99,3488.04,3316.89,3601.97,499.94,493.88,14.18,0000 0000 0000 0000 000000
2014-09-01 12:28:34,0.01,0.06,0.00,22.81,26.60,29.11,9.53,38.63,1010.70,2041.99,3488.02,3316.66,3601.90,500.08,494.25,14.22,0000 0000 0000 0000 000000
2014-09-01 12:33:35,0.01,0.06,0.00,22.77,26.60,29.10,9.54,38.68,1010.61,2041.99,3488.00,3316.46,3601.72,500.25,494.43,14.27,0000 0000 0000 0000 000000
2014-09-01 12:38:35,0.00,0.06,0.00,22.76,26.59,29.10,9.50,38.55,1010.53,2041.99,3487.99,3316.45,3601.65,500.09,494.21,14.31,0000 0000 0000 0000 000000
2014-09-01 12:43:37,0.01,0.06,0.00,22.83,26.57,29.11,9.53,38.83,1010.37,2041.99,3487.98,3316.29,3601.40,500.32,494.36,14.35,0000 0000 0000 0000 000000
2014-09-01 12:48:38,0.00,0.06,0.00,22.84,26.57,29.12,9.51,38.73,1010.33,2041.99,3487.96,3316.12,3601.12,499.91,493.67,14.39,0000 0000 0000 0000 000000
2014-09-01 12:53:39,0.00,0.06,0.00,22.90,26.57,29.08,9.50,38.70,1010.28,2041.99,3487.70,3316.09,3601.04,499.91,493.85,14.43,0000 0000 0000 0000 000000
2014-09-01 12:58:40,0.01,0.06,0.00,22.87,26.57,29.05,9.52,38.68,1010.27,2041.99,3487.13,3316.03,3601.01,500.20,494.04,14.47,0000 0000 0000 0000 000000